Weather Roundup
Issued by NWS Corpus Christi, TX

Home | Current Version | Previous Version | Text Only | Print | Product List | Glossary On
Versions: 1 2 3 4 5 6 7 8 9 10 11 12 13 14 15 16 17 18 19 20 21 22 23 24 25 26 27 28 29 30 31 32 33 34 35 36 37 38 39 40 41 42 43 44 45 46 47 48 49 50
000
ASUS44 KCRP 202110
HRRCRP

SOUTH TEXAS REGIONAL WEATHER ROUNDUP
NATIONAL WEATHER SERVICE CORPUS CHRISTI TX
400 PM CDT MON OCT 20 2014


TXZ229>244-202200-
...CORPUS CHRISTI AREA OBSERVATIONS...

CITY           SKY/WX    TMP DP  RH WIND       PRES   REMARKS
CORPUS CHRISTI LGT RAIN  73  70  90 NE12      29.96F
NAS CORPUS CHR LGT RAIN  73  72  96 NE12      29.95F
ROCKPORT       LGT RAIN  78  71  79 E12       29.96R
KINGSVILLE NAS PTSUNNY   80  72  76 NE16G24   29.94F
ALICE          MOSUNNY   79  69  71 E17       29.95F
FALFURRIAS     CLOUDY    80  69  69 NE10G17   29.92S
$$

...VICTORIA AREA OBSERVATIONS...

CITY           SKY/WX    TMP DP  RH WIND       PRES   REMARKS
VICTORIA       PTSUNNY   85  63  47 NE12      29.97F
BEEVILLE       CLOUDY    79  65  61 E8        29.97F
PLEASANTON     PTSUNNY   85  57  37 NE9       29.97F
SAN ANTONIO    PTSUNNY   84  58  40 E10       29.99F
$$

...LAREDO AREA OBSERVATIONS...

CITY           SKY/WX    TMP DP  RH WIND       PRES   REMARKS
LAREDO         PTSUNNY   84  66  54 E9        29.95F
COTULLA        MOSUNNY   87  59  38 E8        29.94F
DEL RIO        CLOUDY    79  63  57 SE7       29.97F
MCALLEN        CLOUDY    80  71  74 N10       29.89F
HEBBRONVILLE   CLOUDY    83  63  51 NE16      29.94F
$$

...OTHER TEXAS OBSERVATIONS...

CITY           SKY/WX    TMP DP  RH WIND       PRES   REMARKS
BROWNSVILLE    MOSUNNY   88  67  49 E12G17    29.88F HX  91
HOUSTON        MOSUNNY   82  60  47 NE10      29.99F
COL. STATION   MOSUNNY   81  60  48 NE8       30.00F
AUSTIN         MOSUNNY   81  58  45 VRB3      30.00F
WACO           SUNNY     81  59  47 VRB3      30.02F
FORT WORTH     MOSUNNY   81  59  47 CALM      30.01S
WICHITA FALLS  PTSUNNY   81  58  45 SE5       29.99F
LUBBOCK        MOSUNNY   77  54  44 VRB5      30.07F
EL PASO        PTSUNNY   70  54  56 E9        30.01F
$$

...MARINE OBSERVATIONS...

STATION/POSITION TIME  SKY/WX   TEMP    WIND        PRES    VSBY  WAVE   SWELL
                                AIR SEA DIR/SP/G                  HT/PER HT/PER
                 (UTC)          (F)     (DEG/KT/KT) (MB)    (MI)  (FT/S) (FT/S)
PORT ARANSAS     2100            78 78   40/ 16/ 18 1014.5F
BUOY 90 E PORT A 2100            78 81   60/ 14/ 19 1014.2S         4/ 5
BUOY 45 SE BAFFI 2100            80 81   70/ 12/ 14 1012.3F         4/ 7   3/ 7
BUOY 200 E PT IS 2100            81 82   80/ 14/ 16 1011.8F         4/ 6
BUOY 15 E GALVES 2100            75 79   60/ 10/ 14 1015.1F         2/ 6   2/ 6
$$



USA.gov is the U.S. government's official web portal to all federal, state and local government web resources and services.